Find Kosmos-923

NORAD ID: 10120 Int'l Des: 1977-059 Owner: GUKOSR Country: SU operational
LEOCIRCULAR

Live Position

Loading 3D Globe...

About Kosmos-923

Description loading...

Upcoming Passes

Passes for default location (London). Set your location on the main map for personalized predictions.

Altitude History

Loading altitude history...

Two-Line Element Set

1 10120U 77059A 26106.54397255 .00000080 00000-0 38886-4 0 9992
2 10120 74.0468 135.7693 0011586 68.8178 291.4210 14.32884002547038
Epoch: Apr 16, 2026 • Age: 22 hours

Current Status

Altitude 797.9 km
Velocity 7.45 km/s
Sub-Earth Point -36.88°S, 116.34°E
Launch Date Jul 1, 1977
Age 48.7 years
Type other

Technical Details

Classification Payload
Mass 800.00 kg
Dry Mass 800.00 kg
Total Mass 800.00 kg
Length 3.00 m
Diameter 2.00 m
Span 3.00 m
Shape Cyl
Manufacturer NPOPM
Bus Type Strela-2M
Phase Status In Orbit
Owner/State GUKOSR/SU

Most Searched